Overview Statistics Trail Chart Weather Telemetry Raw packets
 

This is the latest recevied weather packets stored in our database for station/object N0QV. If no packets are shown the sender has not sent any weather packets the latest 10 day(s).

<< 1 2 3 4 5 6 7 >>
Time Temp. Humidity Pressure Rain* Wind** Luminosity Snow
1788655928 25° C 84% 1016 hPa 0 mm - 0 W/m² -
1788655627 25° C 83% 1016 hPa 0 mm - 0 W/m² -
1788655322 25° C 83% 1016.1 hPa 0 mm - 1 W/m² -
1788655018 25.56° C 82% 1016 hPa 0 mm - 3 W/m² -
1788654714 25.56° C 82% 1015.8 hPa 0 mm - 5 W/m² -
1788654414 25.56° C 82% 1015.9 hPa 0 mm - 7 W/m² -
1788654108 25.56° C 81% 1015.7 hPa 0 mm - 12 W/m² -
1788653804 25.56° C 82% 1015.9 hPa 0 mm - 19 W/m² -
1788653504 25.56° C 82% 1015.7 hPa 0 mm - 23 W/m² -
1788653199 25.56° C 82% 1015.7 hPa 0 mm - 27 W/m² -
1788652895 25.56° C 82% 1015.7 hPa 0 mm - 32 W/m² -
1788652593 26.11° C 81% 1015.7 hPa 0 mm - 32 W/m² -
1788652288 26.11° C 81% 1015.7 hPa 0 mm - 34 W/m² -
1788651984 26.11° C 81% 1015.7 hPa 0 mm - 42 W/m² -
1788651680 26.11° C 81% 1015.8 hPa 0 mm - 48 W/m² -
1788651380 26.11° C 81% 1015.7 hPa 0 mm - 60 W/m² -
1788651074 26.11° C 81% 1015.5 hPa 0 mm - 62 W/m² -
1788650769 26.11° C 81% 1015.5 hPa 0 mm - 69 W/m² -
1788650465 26.11° C 80% 1015.7 hPa 0 mm - 56 W/m² -
1788650160 26.11° C 81% 1015.7 hPa 0 mm - 50 W/m² -
1788649857 26.11° C 80% 1015.6 hPa 0 mm - 47 W/m² -
1788649556 26.67° C 81% 1015.6 hPa 0 mm - 48 W/m² -
1788649255 26.67° C 81% 1015.7 hPa 0 mm - 49 W/m² -
1788648954 26.67° C 80% 1015.4 hPa 0 mm - 45 W/m² -
1788648649 26.67° C 79% 1015.7 hPa 0 mm - 51 W/m² -

* Rain latest hour (hover to see other rain measurements)
** Current wind speed in m/s (hover to see current wind gust speed)